RH
13 14 18 21 23 24 23 23 22 22 23 22 22 22 21 21 22 24 23 21 17 12 13 10 4 2 1 2 1 0 0 0 0 1 5 6 7 10 11 12 13 11 7 4 9 24 33 37 40 39 43 43 43 45 50 63 71 80 93 93 86 90 96 91 89 88 85 85 84 75 70 73 65 56 55 53 52 52 54 52 52 52 48 55 60 61 67 74
12 15 18 21 23 23 23 23 22 22 23 22 22 21 20 20 20 22 22 21 17 14 15 12 8 4 1 2 2 3 6 6 5 6 10 12 13 15 16 13 12 10 7 5 8 24 34 34 37 38 39 38 40 51 61 67 73 83 91 91 87 91 93 85 82 83 79 75 77 76 70 71 66 59 62 60 57 52 51 51 50 54 57 62 64 64 69 74
11 15 18 22 23 23 23 23 23 22 22 22 21 20 20 19 19 20 21 21 18 16 16 16 14 8 4 7 13 19 22 23 21 18 17 18 19 19 18 14 10 7 6 7 6 18 28 32 36 36 39 38 41 60 73 72 75 78 79 88 89 86 88 82 79 75 70 69 73 79 73 70 64 60 67 66 60 53 49 50 51 58 61 63 68 68 70 74
8 13 17 21 23 23 23 22 22 22 22 22 21 20 19 18 19 19 19 20 19 17 17 17 16 12 10 12 20 24 25 30 26 21 18 16 17 17 16 13 8 6 6 6 5 14 24 32 36 35 37 34 39 61 74 71 72 74 74 81 79 77 82 78 74 69 66 68 67 74 74 71 65 64 71 64 59 57 48 46 48 54 57 61 69 69 70 76
6 10 15 19 22 23 23 22 22 22 21 21 21 20 19 18 18 18 18 19 18 17 16 16 15 15 15 15 19 19 23 33 27 20 20 15 14 11 12 11 8 6 5 5 7 16 26 32 34 34 33 32 49 65 69 66 63 71 71 67 68 73 77 69 65 66 70 74 68 71 76 72 67 68 70 60 61 59 46 44 44 46 51 56 63 68 71 74
6 6 10 16 21 23 23 23 22 22 21 21 21 20 19 18 17 18 18 17 17 16 15 15 14 15 16 15 17 19 26 33 25 23 23 18 15 10 9 9 7 5 5 6 9 18 26 29 30 30 26 30 58 66 56 58 60 69 70 62 64 66 69 64 60 66 73 76 72 72 71 67 69 71 67 59 58 52 43 44 44 45 49 52 58 66 70 73
8 5 6 11 17 22 22 23 23 22 21 21 21 20 20 18 16 17 17 17 16 15 15 14 14 14 14 15 17 22 27 25 19 23 23 19 16 9 8 8 6 4 6 11 16 25 27 25 24 23 19 17 42 58 51 56 59 62 67 67 65 60 64 62 59 69 74 71 66 64 65 65 73 76 66 58 53 46 45 46 47 49 50 53 58 63 67 70
11 7 4 6 12 18 21 22 22 22 21 20 21 20 20 18 16 16 16 17 15 15 15 14 14 14 14 16 17 23 25 17 16 22 20 16 13 7 7 7 6 4 7 15 23 27 22 18 15 14 15 8 20 39 42 56 62 59 63 66 65 64 66 63 64 74 74 67 61 61 69 71 72 71 65 60 52 46 47 48 50 54 54 56 58 62 66 66
12 10 6 4 6 13 18 21 22 22 21 20 20 20 20 18 16 16 16 16 15 15 15 14 15 14 15 16 19 25 21 12 15 21 19 16 11 6 5 5 5 4 9 18 21 19 15 13 12 9 11 8 9 16 29 55 63 54 56 63 69 74 75 73 76 80 76 69 63 66 77 80 72 64 62 61 55 49 48 48 49 53 57 59 59 62 64 63
11 11 9 5 3 7 12 18 21 21 20 19 20 20 19 18 16 15 15 15 15 14 14 15 15 15 16 16 22 28 19 11 15 19 20 16 9 4 4 4 4 5 10 16 15 14 13 12 12 11 9 9 7 6 21 46 51 48 56 67 76 82 82 82 84 84 80 72 66 72 84 86 74 65 64 61 59 55 50 47 48 51 56 59 62 62 61 60
11 10 10 7 4 4 6 12 18 19 19 19 19 19 19 18 16 15 15 15 14 14 14 14 14 15 16 15 24 28 17 12 16 18 19 15 9 6 8 8 5 8 12 13 13 13 13 11 12 11 9 7 5 8 21 34 43 54 64 72 80 80 79 81 87 87 81 77 73 75 84 83 77 75 67 56 56 57 52 48 46 48 52 55 57 58 57 56
16 11 9 9 6 3 4 8 12 16 16 17 18 18 18 17 16 15 14 14 14 14 14 14 14 15 15 16 20 22 17 13 15 17 17 15 13 12 13 13 10 11 12 12 13 12 12 12 11 11 9 6 6 14 29 42 53 63 67 76 81 78 78 79 84 86 80 82 77 72 80 85 86 82 67 53 51 54 53 49 46 46 49 51 53 53 53 53
22 17 11 8 7 4 3 5 9 13 15 16 17 17 17 15 15 14 14 14 13 13 14 14 14 14 16 19 18 20 20 15 15 16 15 15 15 15 16 15 12 12 12 10 11 11 11 12 10 11 9 7 8 8 25 49 61 66 66 77 83 76 79 81 81 84 81 84 77 69 82 91 90 80 68 63 55 53 55 49 46 46 46 49 50 49 49 50
19 20 16 10 7 5 3 4 8 12 14 15 16 16 15 14 14 14 14 14 13 13 13 13 14 14 17 19 17 20 20 16 15 15 14 15 15 16 16 16 14 12 11 9 9 10 10 11 10 10 7 7 8 5 28 56 62 68 67 77 88 81 85 87 83 84 81 86 79 69 83 91 87 77 70 70 60 55 58 51 47 47 46 47 48 49 49 49
13 17 19 14 8 5 4 4 8 12 14 15 14 14 14 15 16 15 15 15 14 13 13 13 14 16 18 17 17 20 18 14 13 13 14 15 14 15 15 15 15 13 12 10 9 9 9 10 8 8 7 6 8 9 33 52 53 66 73 81 92 84 90 92 84 84 81 89 82 69 87 92 81 74 68 70 64 55 55 52 49 51 52 48 45 48 49 49
9 11 16 16 10 5 4 4 9 12 13 13 13 14 16 18 18 17 18 16 13 14 15 17 16 17 20 19 17 18 17 13 11 13 14 13 13 14 14 14 14 14 13 10 9 9 8 9 7 7 6 6 13 19 32 43 43 55 67 82 95 89 90 89 83 84 83 93 88 76 90 89 72 70 69 69 65 55 55 55 53 54 58 53 46 47 50 49
9 8 11 15 13 7 4 4 9 12 13 13 14 16 17 17 17 19 20 17 16 18 19 23 21 21 22 18 15 15 15 13 11 12 13 12 12 12 13 13 12 12 13 11 10 9 8 8 6 7 10 11 19 23 27 33 34 43 51 64 83 86 86 86 84 87 86 91 92 89 93 86 76 78 77 73 66 59 56 56 57 56 57 57 49 51 57 53
12 8 7 12 14 9 4 4 9 12 12 14 15 16 17 17 16 18 20 18 19 21 25 29 27 24 20 15 14 15 13 12 10 11 11 11 11 10 12 11 10 10 12 11 9 9 7 7 7 10 14 15 18 23 26 27 27 35 40 47 66 76 81 85 81 84 90 90 93 97 97 91 87 85 83 78 69 62 57 55 60 58 56 58 52 52 59 57
15 11 7 8 13 11 5 3 8 12 13 14 15 15 17 16 15 17 18 18 19 20 23 25 23 20 18 14 13 14 12 11 10 9 10 11 10 10 10 10 10 10 9 9 8 7 5 7 11 14 15 14 15 19 22 22 21 22 26 39 58 67 74 82 82 81 86 89 95 99 98 93 89 87 88 85 74 65 61 61 61 59 57 58 56 56 59 60
17 14 9 7 10 12 7 3 7 12 12 14 14 15 16 16 18 19 17 17 18 17 16 17 16 16 16 14 12 14 12 10 9 9 9 10 9 9 9 9 11 10 8 9 8 6 6 9 13 16 15 14 15 16 16 17 17 16 15 26 46 59 66 73 80 84 81 85 94 94 93 92 89 90 93 89 80 74 73 72 67 62 59 58 61 61 59 61
19 16 12 8 7 11 8 2 6 12 12 13 14 15 14 15 21 22 18 16 13 13 14 13 14 13 13 12 12 13 12 9 9 9 8 9 10 9 9 10 11 13 12 9 8 7 8 11 12 13 13 13 13 14 15 14 14 15 13 25 50 63 66 68 78 88 81 77 87 91 92 91 88 90 95 93 86 82 81 78 71 65 61 59 62 64 60 59
22 18 14 9 7 10 9 3 5 11 12 12 14 14 13 13 17 19 19 19 13 11 12 11 12 12 11 12 12 13 14 11 9 9 9 8 9 9 9 11 12 15 14 9 10 12 13 13 10 9 11 13 14 14 15 15 15 15 16 36 60 67 67 70 81 92 81 68 78 91 91 90 91 91 94 96 89 82 78 74 74 75 70 66 65 65 63 62
23 20 15 11 8 8 9 4 4 9 11 12 14 14 13 12 13 15 18 22 18 11 10 11 11 10 11 11 11 13 13 11 10 9 9 9 9 9 9 12 13 14 13 11 13 15 16 16 12 10 12 13 14 14 14 13 12 13 16 28 45 59 66 67 77 90 80 67 76 89 91 91 95 93 93 94 87 81 77 74 83 84 72 68 66 61 61 62
22 21 17 13 8 8 9 4 3 8 9 12 14 14 13 13 13 15 16 21 22 15 10 11 11 10 11 11 10 12 12 11 11 9 8 9 8 9 9 11 13 14 14 13 13 14 14 14 11 10 13 14 13 11 11 10 9 11 13 13 22 49 68 70 80 89 81 74 78 86 92 95 95 94 93 91 86 83 78 78 88 86 70 67 68 61 62 65
20 20 19 14 10 8 8 4 3 7 8 11 14 14 14 13 12 14 16 23 27 20 13 10 11 11 10 11 10 10 11 10 10 9 9 8 8 10 11 10 12 15 16 13 13 14 13 10 9 9 11 12 10 8 8 8 9 10 12 8 12 43 73 82 84 85 85 85 80 79 85 92 97 98 95 92 91 88 84 83 87 89 85 77 70 65 67 68
22 20 19 17 13 7 8 9 6 5 7 9 12 15 15 13 14 13 19 35 36 23 15 11 10 10 9 10 11 10 11 11 8 9 8 7 8 9 11 12 12 14 14 12 14 15 13 9 9 10 10 10 9 8 8 8 9 11 11 9 21 51 78 87 82 82 90 88 76 71 75 85 94 96 95 94 94 92 89 89 87 91 97 84 72 70 67 65
27 23 17 18 17 11 10 11 7 5 5 6 10 14 13 12 13 10 22 47 43 21 14 12 8 8 8 8 9 10 12 10 7 8 8 8 8 7 11 15 13 12 12 12 15 15 12 10 10 11 10 10 10 10 9 9 10 11 8 14 41 68 76 75 71 72 77 69 65 69 70 80 91 90 94 95 94 95 93 92 88 90 97 86 74 76 71 64
29 27 19 17 18 17 13 10 8 6 5 7 7 10 13 13 12 16 36 48 31 13 11 10 7 7 7 7 9 9 9 10 9 8 8 7 8 8 11 14 14 14 13 12 15 14 11 10 10 12 10 9 10 11 11 9 9 11 10 11 30 56 69 70 68 66 57 41 49 68 67 71 88 92 94 95 94 96 93 92 90 87 93 88 77 80 76 66
25 29 23 15 16 19 14 10 9 6 8 9 5 9 13 10 9 22 46 45 21 11 10 7 8 8 6 7 8 8 7 8 9 9 8 8 8 9 11 13 12 13 12 11 13 13 9 9 10 10 10 10 10 11 12 9 9 10 12 11 14 32 49 57 63 56 35 20 30 56 63 65 83 97 98 95 96 99 93 91 89 84 88 88 80 80 75 65
22 26 25 16 13 16 14 12 10 10 12 9 6 10 7 11 24 32 41 38 21 13 9 6 8 6 6 8 8 8 8 8 9 9 9 9 8 8 9 10 9 14 19 16 13 13 9 8 10 10 9 10 9 11 12 10 10 9 12 18 18 30 41 50 65 47 19 25 31 38 53 57 67 89 99 96 94 96 92 91 90 85 86 87 85 83 74 68
23 23 26 18 10 13 15 12 11 14 16 12 8 7 4 18 43 42 29 26 21 15 9 7 9 6 7 9 8 8 8 8 9 8 9 10 10 9 9 11 13 20 29 25 16 15 14 10 11 10 8 9 9 10 12 12 14 15 24 25 19 35 46 50 69 47 16 32 40 38 50 53 61 83 95 91 84 86 91 93 93 89 84 80 84 88 79 73
25 23 24 16 8 12 14 12 14 11 12 17 10 6 15 24 33 35 26 22 23 18 9 7 8 8 8 8 8 8 8 8 8 8 10 11 12 12 11 17 21 21 28 28 18 17 20 14 12 11 7 10 11 12 14 17 20 20 32 38 33 47 51 44 56 48 30 34 39 50 60 59 76 92 91 88 82 84 91 89 87 87 83 75 77 87 82 73
24 23 18 12 7 9 13 14 14 7 7 17 10 13 34 35 29 34 30 23 22 15 9 9 8 7 9 8 8 8 8 8 8 8 10 10 13 15 12 18 21 16 19 22 17 20 23 16 13 11 8 9 13 16 16 17 21 20 27 39 43 53 54 45 48 49 47 40 35 55 68 70 88 91 85 90 84 81 83 77 78 83 82 76 72 80 83 76
19 15 10 8 5 8 13 12 11 7 6 12 14 22 32 31 34 41 33 25 21 14 12 13 9 7 8 8 9 9 8 8 8 8 9 9 11 15 15 15 16 14 17 18 17 22 23 19 18 14 11 11 12 17 18 18 20 19 25 34 36 44 50 48 48 44 43 46 52 68 74 79 93 88 83 86 77 74 74 70 76 79 77 75 70 72 79 79
11 6 4 5 4 9 13 11 11 9 4 11 27 35 32 28 33 36 31 25 18 14 14 12 10 8 8 9 9 8 7 7 9 9 9 10 11 15 16 13 12 14 16 18 18 20 21 20 18 13 10 11 12 13 15 19 21 21 26 29 24 34 49 52 52 49 48 64 84 89 82 83 90 84 80 79 74 72 69 65 72 75 74 75 73 73 76 77
5 2 5 9 11 13 12 14 18 10 5 17 30 31 29 30 29 26 25 21 14 14 15 13 11 9 9 12 11 9 7 7 9 8 9 11 12 14 14 11 11 12 15 19 18 17 18 16 13 12 11 11 12 11 12 14 22 29 30 30 25 28 43 49 46 53 61 69 78 86 93 94 86 78 77 80 81 77 71 70 73 74 74 76 76 76 76 78
4 3 10 19 19 13 13 20 18 7 7 17 27 33 34 27 21 22 23 17 12 13 14 16 16 11 10 12 13 12 10 8 8 8 12 14 12 12 12 11 9 10 14 18 15 13 16 14 12 12 11 11 10 12 16 13 19 30 29 30 32 28 38 49 50 61 70 65 69 84 97 97 87 81 79 78 78 75 76 80 78 76 78 79 79 75 74 78
6 6 13 24 20 12 16 18 8 6 12 16 30 49 45 26 16 17 15 10 11 12 12 17 17 12 10 11 13 12 10 11 11 11 14 15 13 11 12 11 10 9 10 11 13 15 16 15 15 15 12 12 13 15 21 19 18 24 24 27 32 30 39 47 45 54 61 62 76 87 88 91 92 92 84 75 75 76 79 86 84 82 85 85 82 76 72 75
9 10 17 23 19 15 19 12 3 10 16 18 33 40 30 22 18 13 11 10 11 11 14 18 14 12 12 11 11 11 9 11 12 12 14 13 13 12 11 12 10 10 10 10 14 19 21 20 19 18 13 11 17 21 25 26 21 21 24 30 34 37 46 45 38 50 64 73 83 78 77 89 94 94 90 81 82 84 84 89 89 86 87 87 84 80 77 75
12 17 25 26 23 24 22 10 7 15 18 25 41 35 18 16 14 9 9 9 9 11 15 16 12 13 14 11 10 10 10 12 11 12 12 12 14 12 8 11 11 12 13 12 16 23 27 24 19 20 20 17 18 18 21 26 25 26 29 32 33 34 40 42 40 50 66 77 81 72 76 89 90 91 91 83 85 90 89 91 92 88 86 87 88 86 84 79
15 25 33 31 27 25 17 10 13 22 26 29 33 26 15 12 11 10 8 7 9 9 10 12 12 13 14 12 11 10 10 13 12 12 12 11 14 12 8 10 10 12 16 16 18 21 22 26 27 24 21 20 19 17 18 20 23 31 32 30 34 34 37 44 47 52 59 66 71 67 70 80 83 88 88 83 86 89 89 90 91 88 88 91 93 90 89 89
19 26 28 27 27 21 13 17 21 22 24 22 18 15 13 12 14 12 8 7 10 9 9 11 12 13 13 12 12 11 12 14 12 13 13 10 14 13 8 8 7 10 16 17 16 17 27 39 38 28 24 22 18 18 18 17 24 31 31 35 41 42 48 57 60 59 51 51 62 62 61 72 83 89 89 86 87 85 83 87 88 88 91 94 94 90 89 96
23 22 20 22 26 19 15 27 31 24 22 18 12 12 11 10 12 11 8 10 11 10 11 13 11 11 11 10 9 10 12 13 12 13 13 12 13 11 8 8 8 11 15 16 15 18 29 40 37 40 52 43 23 21 22 20 24 24 25 38 40 39 53 62 66 65 46 44 60 56 56 74 85 91 91 85 84 80 76 84 91 91 92 93 92 92 94 98
27 25 22 28 29 20 19 28 31 35 38 29 19 19 18 15 12 10 11 11 10 11 12 12 11 10 10 10 9 9 11 13 13 12 13 13 10 8 9 8 8 11 13 13 16 14 18 33 40 44 53 42 24 24 23 18 22 22 23 33 35 38 46 45 51 58 45 47 60 51 57 80 84 87 93 88 85 84 77 82 92 93 94 96 92 93 98 100
35 32 26 32 33 23 25 31 30 35 41 36 33 33 29 22 16 13 13 11 10 11 11 12 11 8 9 10 9 9 11 13 13 12 13 13 10 9 8 7 9 12 10 9 13 15 20 40 57 50 39 36 36 34 27 21 22 22 23 27 29 34 36 34 44 52 46 49 56 55 66 80 78 79 87 88 89 89 84 82 88 93 97 99 94 94 99 100
49 51 45 46 39 30 34 40 41 44 45 45 48 42 31 27 23 18 15 13 12 12 11 12 11 9 9 10 10 10 10 11 13 16 15 12 11 10 7 9 10 7 10 9 8 22 34 41 60 65 46 40 50 50 41 32 21 17 20 22 26 33 37 40 44 49 55 57 57 68 75 69 70 75 78 84 90 93 93 87 88 96 98 99 98 95 96 97
59 65 67 66 58 50 49 47 49 55 53 49 50 42 33 34 30 22 17 14 12 12 12 12 11 10 12 11 12 12 11 12 13 15 16 15 14 12 9 13 11 9 17 13 6 27 38 25 37 57 43 34 45 45 36 28 18 16 18 16 24 38 39 37 38 44 57 54 50 72 81 66 68 77 76 84 91 94 96 91 92 100 98 99 100 94 92 93
62 66 68 70 71 70 63 54 54 57 51 47 50 44 36 36 32 25 22 18 13 12 12 14 13 13 14 13 14 16 17 17 15 14 17 17 15 15 13 12 15 20 24 15 13 33 40 25 24 31 26 27 33 28 23 23 19 21 23 18 24 38 36 33 41 49 54 52 51 68 78 70 71 80 81 85 89 89 91 93 97 99 97 98 96 90 90 92
67 73 71 66 69 68 60 54 55 56 51 50 56 50 38 38 36 29 27 26 22 17 14 15 18 18 18 17 20 25 23 18 17 18 21 18 16 20 19 13 17 24 21 15 18 27 31 35 36 24 16 24 27 22 23 24 22 25 30 27 27 34 36 36 50 59 56 60 71 73 73 72 74 84 90 87 84 86 91 96 98 95 96 100 94 88 91 91
71 81 81 74 72 65 56 55 56 58 56 52 52 46 37 39 39 33 30 29 28 26 20 20 26 25 21 22 26 29 25 21 20 19 21 21 21 23 23 19 20 20 16 16 20 20 19 34 50 40 23 25 30 28 26 27 32 34 34 33 31 33 37 41 56 67 63 68 83 81 76 79 82 88 93 86 83 89 94 97 95 92 97 99 91 90 94 93
64 72 78 83 83 70 61 61 58 60 63 55 49 46 40 38 37 34 33 28 25 28 25 24 29 28 24 28 30 26 23 25 23 17 16 18 18 18 17 17 19 17 17 18 19 21 23 29 45 45 28 26 31 28 27 35 41 40 36 34 36 38 40 44 54 65 67 74 86 81 73 78 85 90 93 90 91 95 98 99 96 93 97 96 91 94 98 98
55 61 72 83 86 75 69 72 66 62 63 55 47 44 39 37 37 37 40 34 24 25 27 25 29 34 32 29 28 24 20 21 19 14 13 12 11 12 10 11 15 14 18 23 19 27 36 28 29 36 30 29 34 32 36 40 36 37 40 40 47 54 53 49 53 59 66 77 82 75 72 80 88 92 95 97 99 99 99 101 99 95 95 96 96 97 99 100
Wind_Speed
8 6 4 3 4 5 6 7 8 9 10 11 13 13 15 15 15 15 15 15 13 13 13 12 11 9 7 5 3 2 2 2 2 4 5 5 8 9 9 9 8 7 8 8 10 12 13 12 10 8 7 6 7 7 7 7 7 3 1 2 2 1 2 3 4 3 2 2 2 1 1 4 4 0 2 3 3 13 19 11 9 8 3 14 20 23 28 25
8 6 4 3 4 4 5 6 8 9 10 11 13 14 15 16 15 15 15 14 13 12 13 13 12 11 9 7 5 4 3 3 0 3 3 5 7 7 7 9 8 8 8 8 10 12 12 11 9 7 6 6 6 5 5 6 7 3 2 1 1 3 2 4 4 3 3 2 3 3 3 5 2 3 3 3 4 14 12 8 10 11 12 16 21 27 27 27
8 6 4 3 3 4 5 6 7 8 9 11 12 14 15 15 16 15 14 14 13 11 12 13 13 12 11 9 7 6 6 5 1 2 3 3 4 5 6 9 9 9 8 7 9 12 11 8 7 5 4 5 5 6 5 5 6 3 2 1 3 4 1 5 8 8 7 4 5 4 4 4 0 3 4 2 7 13 11 11 13 17 20 21 27 30 28 30
8 6 4 3 3 4 5 6 6 7 8 10 12 14 14 15 16 15 14 14 13 11 11 12 12 13 11 9 7 7 8 5 2 3 3 1 1 3 5 7 9 10 9 7 9 12 11 8 7 5 4 5 5 8 7 7 7 2 3 2 4 6 3 8 14 13 9 6 6 4 2 1 2 3 5 2 8 8 12 20 21 23 26 27 32 32 30 31
9 7 5 3 3 4 5 5 6 7 8 9 11 13 14 15 15 15 14 13 13 11 12 12 12 12 9 8 8 8 7 3 2 1 3 3 3 4 5 7 10 10 9 8 10 12 11 8 6 5 5 5 4 6 7 13 11 2 5 6 6 12 4 10 17 15 10 7 6 4 2 1 2 1 4 1 7 5 14 23 26 27 29 31 34 33 33 32
11 8 6 5 4 4 5 6 6 7 8 9 11 12 14 15 14 15 14 13 12 11 11 11 11 11 10 10 11 10 4 1 4 3 3 5 5 4 6 8 10 10 10 9 11 12 9 7 5 5 5 4 6 6 7 16 15 2 5 7 8 17 6 8 18 15 10 8 6 5 2 1 3 2 5 3 4 5 13 21 25 27 29 32 34 34 34 33
12 10 8 6 5 5 6 6 7 7 8 9 10 12 14 14 14 14 14 13 12 11 10 10 10 10 11 11 12 10 5 5 7 4 4 6 6 5 6 8 10 10 11 11 12 11 7 7 7 6 2 1 6 8 9 15 17 5 2 5 9 17 9 10 18 16 13 10 9 8 3 1 3 2 3 5 7 10 14 19 23 26 30 32 34 35 34 33
13 12 10 8 7 7 7 7 7 8 8 9 10 12 13 14 13 13 13 12 11 10 9 9 9 11 12 12 13 10 6 8 5 2 5 5 5 4 5 8 9 10 12 12 11 9 6 6 6 3 1 1 4 7 8 10 11 6 3 5 8 11 9 12 17 16 14 11 10 9 3 3 2 3 2 5 11 15 17 18 21 25 30 33 33 34 33 32
14 13 11 9 8 7 8 8 8 8 8 9 10 11 12 13 13 12 12 12 11 10 10 10 10 12 11 12 13 8 6 9 4 2 6 5 4 3 6 7 9 11 12 11 9 8 6 3 3 3 3 7 6 6 8 9 6 9 8 7 9 6 7 11 12 14 14 11 10 8 3 5 2 2 3 7 11 14 17 18 21 26 29 31 32 33 33 31
15 14 13 11 9 8 9 9 9 9 9 9 10 11 11 12 12 11 11 11 11 10 11 10 11 12 12 13 11 4 6 8 2 2 5 5 3 3 5 6 9 10 12 10 8 6 4 4 7 7 8 8 7 7 5 8 5 11 11 6 8 6 5 7 6 9 9 9 10 7 1 3 3 2 2 8 11 13 17 18 22 27 28 30 31 30 31 29
16 15 14 12 10 9 9 9 10 10 10 9 10 11 11 11 11 11 11 11 12 11 10 10 11 12 12 15 9 3 7 7 2 2 3 4 2 5 5 6 7 7 8 7 6 5 5 6 9 9 4 4 5 8 2 7 6 14 14 7 6 5 1 3 3 7 6 4 8 7 2 2 1 2 5 12 13 13 17 20 25 28 27 30 30 30 29 27
18 17 15 14 12 10 9 9 10 10 10 10 10 11 11 11 11 11 11 12 13 12 11 9 10 11 13 15 10 5 8 6 2 2 2 3 2 5 3 4 6 5 6 6 6 4 6 7 9 9 5 4 4 6 4 5 10 15 13 5 3 4 2 5 4 7 4 2 8 7 2 3 3 4 7 13 16 14 15 21 28 28 26 29 31 31 29 27
19 18 17 15 13 11 10 9 10 10 10 9 10 11 12 11 11 12 12 12 13 12 11 10 10 12 13 13 10 7 9 5 1 3 2 1 2 2 2 2 3 4 5 7 6 5 5 6 9 12 9 5 2 1 3 7 13 12 7 4 2 4 3 6 6 6 3 2 9 7 0 5 6 7 10 12 15 18 15 21 29 28 25 27 29 31 31 29
19 19 18 16 14 13 11 10 10 10 10 10 10 11 11 12 12 13 13 12 12 11 10 10 12 12 12 13 9 7 8 6 5 4 2 2 2 3 5 5 5 4 4 4 5 5 5 7 10 12 9 4 1 1 3 6 8 6 4 3 2 0 3 3 5 6 3 3 8 6 1 5 6 7 9 10 14 20 17 21 28 26 22 25 27 29 31 30
19 19 18 17 15 13 11 10 10 10 10 10 9 10 12 13 14 14 13 12 11 10 10 11 13 12 13 13 6 4 6 5 5 3 3 2 2 2 3 5 6 6 5 4 3 3 5 8 10 9 5 2 1 3 3 3 2 2 3 1 1 3 4 4 4 8 4 3 5 4 1 5 6 4 7 10 14 19 18 21 25 21 18 21 26 27 29 29
19 18 18 18 16 14 12 10 10 9 9 9 8 9 12 13 13 13 12 11 10 10 10 12 12 11 10 9 5 6 8 6 2 3 5 4 4 2 1 4 6 7 8 6 4 5 7 9 9 7 4 1 3 5 4 3 2 2 1 3 2 3 3 3 3 7 6 3 2 2 1 3 3 4 3 11 14 16 19 21 19 20 18 15 20 23 24 27
19 19 18 18 16 14 12 10 9 9 8 6 6 9 12 11 10 10 8 8 9 11 13 12 11 11 8 5 5 6 7 6 3 4 7 4 3 3 4 7 6 5 9 8 8 9 9 6 4 4 3 2 3 5 4 1 1 2 2 3 3 4 3 1 2 5 7 5 1 1 1 4 3 5 2 10 13 13 18 20 16 22 21 11 15 17 15 21
20 19 18 17 16 15 12 10 9 7 5 4 7 10 10 9 8 6 7 10 12 12 11 7 4 6 5 4 7 9 7 6 4 3 6 6 4 5 7 8 6 4 6 7 8 8 7 4 2 1 3 3 2 5 4 4 4 5 5 4 4 4 4 4 3 5 9 5 3 3 3 8 7 4 2 8 12 12 15 18 17 22 20 11 15 20 15 16
21 20 18 17 16 15 13 10 8 6 3 3 9 10 8 11 8 2 9 17 14 7 5 5 4 3 7 11 13 13 9 6 6 4 5 5 5 6 8 9 8 4 2 2 4 4 4 2 3 1 2 2 3 5 5 6 6 7 7 5 4 5 5 5 3 5 10 5 3 7 5 6 7 4 4 6 9 11 12 14 16 19 17 14 18 20 18 15
22 21 19 17 16 15 13 9 7 5 3 3 10 9 8 13 7 4 16 23 15 9 10 13 12 12 15 16 13 9 7 6 7 6 4 4 5 5 7 8 6 2 3 3 2 3 3 1 2 4 6 6 5 7 7 5 2 3 2 4 5 6 5 3 2 4 9 5 3 7 5 5 5 4 4 6 6 7 9 9 12 14 17 22 20 15 16 15
23 22 20 17 15 15 13 10 7 4 4 3 10 10 10 12 6 7 18 20 14 13 16 18 16 16 17 13 8 6 8 7 7 8 5 6 6 3 5 5 2 1 3 4 2 0 3 2 6 9 10 9 7 6 6 6 4 2 3 6 5 5 5 3 1 4 7 3 2 4 4 6 4 3 3 5 5 6 9 10 10 12 17 25 20 12 17 19
23 22 20 18 15 14 13 10 6 4 4 3 10 11 12 13 8 8 12 13 15 15 16 19 17 16 15 12 8 7 10 8 7 9 8 8 8 6 4 3 3 2 2 2 2 3 1 3 10 13 9 5 6 5 5 7 6 2 2 2 3 3 1 3 2 3 5 1 2 4 4 5 4 2 4 5 6 6 11 13 10 9 12 18 19 16 19 22
23 22 21 19 16 14 13 9 6 6 5 1 7 10 11 11 9 10 7 8 15 16 14 15 14 14 13 11 8 9 12 11 7 7 9 10 9 9 7 3 3 2 1 2 4 1 1 6 11 10 7 5 5 5 5 5 5 2 4 3 2 3 3 1 2 3 3 1 1 4 3 3 4 1 2 5 7 5 10 13 7 8 11 14 19 20 22 24
23 23 22 20 16 14 13 8 6 7 7 2 3 6 8 9 8 10 8 5 8 11 11 9 9 12 13 9 8 12 16 12 8 6 7 11 10 7 7 6 3 2 3 5 7 5 6 11 7 3 2 6 5 4 3 2 3 3 4 5 3 4 5 3 3 4 2 3 2 4 2 4 3 2 2 3 4 4 8 11 6 9 17 17 18 21 23 25
23 23 22 21 17 14 12 7 5 7 7 4 3 2 5 9 9 11 7 2 4 7 7 5 6 9 9 7 8 14 15 12 12 10 8 12 12 6 3 4 3 2 5 6 7 4 9 13 8 3 1 5 4 4 4 5 1 3 4 5 4 7 6 7 8 5 4 3 3 4 3 4 4 3 5 1 1 3 4 8 7 8 13 16 19 23 22 22
23 23 22 22 19 15 11 6 5 8 8 6 6 5 6 8 9 11 6 3 3 5 3 2 4 5 7 8 11 13 8 7 10 11 11 13 14 7 3 1 2 3 3 3 4 3 6 5 2 3 4 4 3 2 4 5 4 1 5 3 7 10 9 10 10 5 3 2 4 4 4 3 4 4 5 2 2 4 3 5 7 9 14 16 20 23 23 23
22 23 22 22 21 17 12 9 8 8 7 7 7 8 8 8 9 9 4 4 3 3 2 3 3 5 7 9 14 11 2 3 4 7 13 15 13 10 5 2 1 3 2 3 2 3 3 1 3 3 4 4 2 1 3 6 8 2 5 5 9 11 11 11 10 4 3 2 2 1 4 1 3 5 4 1 2 4 4 5 7 6 15 20 22 22 23 24
22 23 23 21 21 19 15 12 10 8 6 7 8 9 7 7 10 6 3 2 2 1 2 3 3 5 6 8 16 11 2 3 2 4 15 16 12 8 3 4 4 4 2 5 1 5 2 0 1 3 4 2 2 3 5 6 5 6 6 7 6 7 10 10 9 3 1 3 2 3 3 2 4 5 3 2 1 4 6 5 7 5 13 19 21 20 23 24
22 23 23 22 20 18 15 13 11 7 6 7 7 8 7 8 8 3 5 1 1 1 2 2 2 5 6 5 12 11 3 5 3 4 14 16 15 10 3 4 5 2 2 5 4 6 3 2 5 5 3 3 6 6 6 7 2 4 3 5 4 4 6 4 5 3 3 2 3 5 5 3 3 4 4 4 4 6 7 6 8 8 11 18 20 20 25 26
22 22 23 23 20 18 15 11 9 6 5 5 6 7 7 6 4 4 1 2 1 2 1 2 3 3 4 3 4 6 4 7 6 4 9 10 12 11 4 4 2 3 2 1 2 5 4 4 4 4 3 5 5 4 4 5 5 3 4 4 5 6 4 4 3 3 3 1 6 6 7 4 2 3 4 3 1 3 5 5 5 9 10 12 17 20 24 26
22 21 22 23 21 20 17 10 7 6 5 4 5 4 3 3 3 4 2 3 1 2 2 2 2 2 6 5 2 4 2 4 5 4 5 4 3 4 1 2 2 4 4 5 3 5 6 2 3 2 2 3 3 1 2 3 1 5 5 4 3 4 4 4 4 4 2 3 5 3 4 5 0 3 2 3 6 3 1 1 1 4 13 16 14 17 20 22
23 21 21 22 22 20 17 12 9 8 6 3 1 3 2 1 1 2 3 2 2 2 2 2 2 1 4 4 2 4 2 3 4 4 4 2 1 2 1 3 1 4 3 3 3 5 5 3 4 4 2 2 5 2 3 6 6 5 5 5 4 2 3 3 3 2 1 3 2 2 4 5 1 4 5 6 6 3 3 3 3 3 9 14 12 13 17 19
23 23 22 21 21 19 15 11 10 9 6 3 2 3 5 3 2 5 3 2 1 3 2 2 3 2 3 1 3 3 2 3 4 3 2 2 1 3 2 3 5 4 1 2 2 4 4 5 5 5 4 0 6 4 0 2 4 4 3 4 4 2 3 1 2 1 1 3 3 4 3 2 2 2 5 6 5 6 6 6 6 6 8 10 9 5 8 15
23 23 23 21 19 17 13 10 11 10 7 6 3 3 5 2 4 4 2 3 3 2 3 3 4 3 4 2 4 3 2 3 3 3 2 3 1 3 3 2 4 4 3 1 1 1 2 3 3 1 2 2 2 3 5 4 2 2 2 5 5 4 4 2 2 1 1 3 4 5 3 2 1 1 4 6 8 8 6 7 8 8 10 11 10 8 5 3
24 22 22 21 17 13 10 10 11 9 9 8 4 4 4 4 4 2 3 4 1 3 5 5 2 3 2 3 4 3 3 3 3 4 3 2 3 3 3 4 3 3 4 2 1 1 3 2 6 5 1 1 1 2 3 5 3 2 1 4 2 3 5 3 3 3 2 0 3 4 1 3 2 2 4 6 8 8 5 9 12 13 15 14 12 10 9 5
23 20 17 15 13 10 9 10 10 9 13 10 4 1 5 4 3 3 2 1 1 2 6 7 2 2 2 4 3 2 1 2 2 4 1 2 3 3 4 3 3 4 5 3 1 1 3 2 7 7 5 1 2 1 1 2 2 1 3 1 3 3 6 4 1 1 3 3 1 1 1 3 3 2 4 3 5 6 5 9 12 13 15 16 15 14 12 9
23 20 13 11 8 7 11 10 8 11 15 10 3 4 5 3 4 4 1 2 1 2 3 3 2 0 1 2 3 4 2 0 1 2 1 2 2 2 2 2 1 4 5 4 2 2 3 0 6 4 4 5 4 7 4 4 4 4 1 2 3 2 4 4 2 3 4 2 2 1 0 3 2 1 3 2 4 4 3 6 9 11 14 15 16 15 14 12
23 19 11 11 7 7 12 8 9 13 13 6 1 4 3 2 4 2 2 3 2 1 3 1 3 1 1 1 3 5 1 1 1 2 2 1 1 2 2 2 2 2 5 5 3 0 4 1 6 3 1 5 4 6 5 8 7 5 4 3 3 3 1 2 2 0 2 1 2 3 2 2 2 2 2 1 3 4 4 5 6 8 12 15 16 16 15 14
22 16 10 12 5 9 10 8 11 13 8 3 3 4 2 2 5 5 6 5 1 1 1 3 3 1 1 3 3 4 0 2 3 2 2 2 1 1 1 2 2 4 2 5 5 1 3 4 3 6 4 3 5 4 2 4 6 5 4 3 2 3 2 1 1 2 3 2 2 2 3 3 4 4 4 5 6 4 4 5 4 7 11 13 15 16 16 16
19 11 8 9 4 11 8 8 12 9 4 2 4 3 2 2 5 6 6 5 2 2 2 4 3 2 3 2 3 3 1 3 3 2 1 1 2 1 3 2 3 0 4 8 6 1 3 4 1 6 6 3 2 0 4 4 1 3 3 2 2 2 2 2 1 1 3 3 2 0 1 5 5 4 5 6 5 4 3 4 5 8 11 12 14 15 15 16
14 6 5 6 6 11 10 10 8 4 2 2 3 2 3 3 3 6 9 9 6 6 6 6 4 4 4 2 3 2 0 1 1 2 2 1 3 1 2 4 6 4 3 7 4 1 2 3 3 2 4 2 4 5 3 5 5 5 3 3 3 3 3 3 1 2 1 4 4 3 1 6 5 3 5 5 4 3 3 4 5 8 11 12 13 14 14 14
11 3 1 3 4 11 11 6 1 1 3 2 3 3 5 5 4 7 10 8 6 8 8 6 5 6 5 3 3 3 1 1 0 2 2 3 4 3 4 9 9 6 5 3 1 1 2 4 4 0 2 3 7 7 2 3 5 5 3 3 4 3 4 5 2 3 1 2 1 3 1 5 5 2 4 4 3 1 1 2 5 8 11 12 13 14 14 12
12 7 1 1 4 12 9 0 3 1 2 4 4 4 7 5 4 7 7 3 4 5 4 4 4 5 5 4 3 2 3 2 1 2 1 2 3 2 6 13 12 7 6 2 2 0 2 3 3 1 4 4 6 7 4 2 4 5 1 1 3 3 3 5 4 3 3 2 1 2 1 5 5 3 3 2 0 2 2 2 5 7 9 11 12 14 14 12
14 11 2 3 3 12 7 1 2 2 4 4 4 5 8 7 6 8 6 3 4 3 1 3 4 4 4 3 3 2 3 3 1 3 2 2 2 2 7 14 10 4 3 3 3 3 1 1 3 3 3 4 3 4 5 5 3 2 1 2 2 4 6 4 2 3 2 3 4 4 3 5 4 4 3 3 3 4 4 3 5 6 8 11 11 13 13 11
12 7 4 3 2 9 5 2 1 2 3 3 5 5 6 6 7 12 10 8 9 7 3 6 6 5 4 2 1 2 3 3 2 3 2 2 2 3 9 14 9 5 5 8 10 7 3 2 4 5 3 3 3 2 2 2 2 1 2 1 2 5 7 5 2 4 1 3 4 4 3 5 5 4 4 3 2 3 5 4 4 6 7 10 11 11 10 9
6 3 4 5 3 3 2 5 6 2 1 3 4 4 4 3 6 13 12 9 12 10 7 8 8 4 3 2 2 2 2 2 2 3 3 3 2 2 6 9 9 10 12 13 12 7 4 2 3 6 6 6 6 6 5 3 1 2 4 2 3 4 6 6 4 3 3 3 2 4 5 3 5 5 5 5 2 3 5 5 6 7 7 9 10 9 9 9
3 2 3 5 4 3 4 6 9 6 2 2 2 3 4 4 5 9 8 6 9 9 5 6 6 4 4 4 3 2 2 1 2 4 4 4 2 1 3 4 6 13 15 12 9 6 5 1 2 5 6 6 7 6 3 2 2 3 3 3 4 4 5 6 4 4 5 5 2 7 5 4 6 7 6 5 4 4 4 4 6 7 7 7 9 10 8 8
3 2 3 3 2 1 2 5 9 8 5 4 2 2 4 6 5 6 6 8 11 8 3 3 4 3 4 5 4 2 1 2 0 2 3 2 0 2 3 2 2 8 10 5 2 4 6 2 3 4 4 5 4 4 1 3 4 3 2 3 5 6 6 6 5 4 6 6 5 6 7 6 7 6 5 6 5 3 3 3 4 5 6 6 8 10 9 8
3 3 3 3 2 3 6 9 11 7 4 4 2 1 5 7 7 7 6 6 8 7 2 1 5 6 3 3 4 3 2 1 1 3 2 3 2 3 3 1 0 4 4 3 1 3 4 2 4 4 1 4 3 4 3 3 3 1 3 1 6 6 5 4 3 3 4 3 3 5 8 7 7 5 4 4 3 3 2 2 3 4 5 6 7 10 10 8
2 2 4 5 5 7 9 9 7 4 4 4 2 3 5 5 7 10 8 3 4 7 5 1 5 5 2 3 6 3 2 4 3 2 3 5 3 2 3 3 3 3 1 2 1 2 3 2 3 4 2 4 4 0 2 3 4 3 4 3 8 8 4 4 3 3 3 1 2 3 2 5 5 3 3 2 3 3 2 2 3 4 5 6 7 9 10 9
2 4 5 4 4 5 6 6 4 1 2 3 2 3 4 4 8 10 8 4 3 6 7 7 6 2 5 6 7 4 4 4 5 4 4 6 6 7 6 5 7 5 1 2 2 2 3 1 0 5 4 3 4 2 3 5 7 5 3 3 7 7 4 2 2 3 4 3 3 4 0 6 5 3 5 3 3 3 2 3 4 4 5 6 8 9 9 9
3 5 5 2 2 3 3 4 3 1 0 2 5 6 4 5 11 10 5 4 9 13 12 10 5 1 5 7 4 6 11 6 4 5 4 4 7 13 12 11 15 12 5 3 2 2 4 4 2 4 2 4 4 3 3 5 7 3 2 5 6 4 4 3 2 3 5 6 5 3 5 6 3 6 5 2 3 3 4 4 3 4 5 5 7 8 8 8
Wind_Direction
27 31 39 54 49 37 27 20 17 14 13 11 9 10 11 11 10 8 7 5 3 7 13 18 24 27 31 37 30 9 314 299 248 223 226 197 186 191 185 186 186 185 187 180 190 192 191 194 191 192 200 216 239 248 250 239 228 216 43 63 129 191 195 191 205 194 172 233 236 213 184 155 147 75 342 319 234 175 172 177 171 176 183 171 166 159 164 167
27 29 36 47 37 25 17 12 11 9 9 7 6 6 7 9 10 10 9 8 9 13 19 25 34 38 45 55 54 51 28 1 301 196 165 152 175 187 191 197 201 203 198 190 193 190 190 191 187 197 216 233 250 237 226 212 208 203 92 75 215 209 199 195 203 210 194 204 196 183 210 183 134 8 352 329 191 172 172 167 152 133 133 154 161 162 166 169
24 24 27 31 21 12 7 4 4 4 5 5 2 360 2 5 7 9 8 9 12 17 23 27 35 42 53 60 53 43 16 351 318 128 109 132 170 184 197 205 209 207 200 194 195 193 192 187 187 209 242 265 255 206 193 191 203 227 134 126 244 225 209 219 217 215 209 200 182 174 207 206 321 336 315 285 170 171 173 161 151 139 144 156 162 166 169 171
21 21 17 6 1 358 354 354 355 355 359 360 358 356 357 359 3 6 7 8 11 18 22 23 33 43 52 52 40 19 3 351 180 118 64 36 225 213 204 206 211 203 194 194 192 193 197 194 203 238 274 280 243 193 189 194 194 192 165 186 207 183 199 225 216 213 213 209 192 163 166 258 330 308 297 210 154 180 188 175 171 161 158 162 164 169 171 174
16 15 5 348 340 341 343 342 343 346 349 353 354 351 351 354 358 3 6 7 9 15 17 20 29 33 32 24 8 350 358 26 175 122 19 340 299 245 216 211 206 195 192 193 187 190 197 205 225 255 259 249 192 177 207 202 192 174 222 243 179 163 192 226 211 210 214 216 198 157 155 287 6 354 328 180 154 199 195 182 180 172 167 168 168 171 173 177
11 8 359 343 327 325 330 331 332 335 338 345 349 347 348 349 352 360 4 5 7 11 12 17 19 15 8 358 349 339 338 360 307 302 334 327 307 260 221 209 197 190 193 190 187 193 201 210 230 234 224 214 176 186 220 199 192 206 241 255 191 173 183 211 203 206 204 203 191 179 206 45 69 60 8 35 134 175 181 180 179 175 173 171 169 172 175 179
8 4 357 342 324 316 317 320 322 326 331 336 342 344 344 344 347 355 359 3 6 5 5 6 1 358 353 346 345 338 306 316 325 314 331 322 302 265 222 206 192 190 194 190 189 192 202 214 234 234 208 220 192 208 224 192 188 203 241 248 195 181 191 198 196 201 199 200 197 196 213 82 96 103 23 46 114 138 156 168 172 172 172 170 170 174 177 181
7 3 357 345 326 313 307 310 313 317 324 327 335 340 341 341 341 348 354 358 1 0 357 352 348 345 346 343 343 340 320 332 345 3 352 333 304 262 215 202 191 192 193 189 187 193 214 231 254 257 71 286 233 234 219 180 185 207 225 212 179 178 204 202 197 204 204 201 196 196 178 94 109 145 110 95 124 139 147 155 163 167 170 171 173 176 179 183
8 3 358 348 332 315 303 302 304 308 314 319 328 334 338 337 336 342 346 349 353 353 347 340 337 337 339 337 339 341 338 345 355 8 3 355 321 240 196 193 191 193 188 183 186 206 239 270 326 351 304 275 275 269 198 165 194 206 199 187 161 163 195 192 197 203 201 195 184 185 137 88 124 153 135 142 141 150 155 156 164 166 170 175 176 179 182 187
9 5 360 352 340 323 307 300 299 301 307 313 321 328 332 332 331 334 336 339 343 343 340 333 330 332 332 333 338 346 342 349 349 317 358 5 350 175 170 174 183 186 182 186 201 227 278 315 341 334 303 279 272 290 202 174 198 182 172 144 129 126 169 184 205 199 187 185 180 176 129 90 145 162 202 182 160 159 169 171 173 169 171 176 178 183 187 192
10 7 2 356 346 333 315 302 297 297 302 309 316 321 324 324 326 326 327 331 332 336 336 330 326 324 326 326 319 304 334 351 358 286 343 11 74 138 130 142 164 177 187 206 223 254 313 333 339 330 309 302 287 313 298 190 170 148 141 96 89 93 133 219 223 190 168 176 185 162 90 2 129 175 209 198 180 168 175 178 180 176 175 177 179 184 190 198
10 8 4 359 352 340 326 310 300 297 301 306 312 316 316 315 317 318 320 324 327 331 329 327 324 318 322 317 301 297 324 341 349 264 315 25 115 137 119 141 159 177 214 236 241 266 321 330 323 313 302 326 306 333 358 159 132 126 129 95 59 28 325 223 198 190 185 185 180 147 71 303 249 202 174 178 185 182 176 175 179 182 181 182 184 187 192 199
8 7 4 1 355 346 334 319 307 301 302 305 309 311 308 309 312 314 318 321 326 327 324 323 316 316 318 309 302 302 302 309 287 236 268 315 175 191 220 209 186 195 228 246 249 265 316 316 303 306 303 303 276 327 11 110 112 107 98 81 88 10 299 206 177 184 185 166 172 153 255 258 244 221 170 161 185 189 179 171 177 183 188 188 189 193 197 201
5 4 3 1 357 349 339 325 312 305 305 308 311 308 306 311 313 312 315 318 322 321 319 316 310 314 311 304 306 292 281 274 248 226 216 222 216 252 243 240 240 225 229 256 269 271 298 306 300 303 295 265 225 357 23 88 103 102 72 48 106 169 269 226 166 165 156 183 181 157 235 259 271 249 190 171 187 191 182 173 178 184 191 194 193 196 201 204
2 1 1 359 356 350 341 327 314 307 309 313 313 309 313 319 314 310 311 311 315 314 316 311 305 311 307 303 297 249 256 249 235 184 149 214 229 264 244 239 251 243 239 262 288 294 294 298 297 297 291 268 81 57 40 48 46 79 110 286 250 190 263 305 181 170 157 196 195 155 199 262 287 284 198 180 186 192 188 180 179 183 194 201 200 201 204 204
360 359 359 357 355 350 340 328 315 310 317 318 314 316 323 322 315 312 307 305 310 310 315 309 299 305 305 301 278 234 241 232 202 161 181 227 234 234 299 284 285 256 241 251 269 289 290 291 296 293 300 338 105 94 65 39 360 339 200 221 219 195 259 319 197 184 155 135 207 189 194 245 304 352 181 180 189 192 188 186 176 178 193 199 196 201 202 201
359 358 358 356 354 348 339 328 315 316 322 318 325 334 332 326 325 330 326 321 320 314 316 308 295 295 285 281 290 274 251 225 203 192 193 205 241 257 278 284 304 260 239 246 259 275 280 282 292 287 314 52 105 97 83 40 273 273 265 252 238 202 208 281 236 192 156 138 197 207 266 242 276 349 147 177 193 189 182 189 175 173 190 193 181 187 194 197
357 355 356 355 353 348 339 326 316 321 320 315 345 349 342 336 335 357 8 345 328 321 322 321 319 309 273 262 296 304 288 228 202 191 191 202 237 262 267 273 297 285 242 244 255 262 265 285 353 326 343 23 94 102 129 214 196 185 204 237 257 221 205 222 232 176 162 158 167 175 252 259 270 310 218 182 194 192 181 187 174 169 187 189 169 176 190 201
355 354 354 352 353 347 337 326 317 321 297 307 347 351 359 354 337 346 354 335 320 317 318 303 304 289 269 281 296 305 295 235 203 199 199 215 239 252 257 261 273 273 180 208 259 239 220 312 16 345 294 270 191 161 188 209 166 162 187 192 214 230 234 222 206 175 166 153 170 190 217 252 266 275 226 198 196 198 188 187 177 168 176 169 157 169 187 201
353 352 352 352 352 346 337 324 316 319 255 299 353 3 14 1 350 336 335 325 311 303 297 294 287 274 276 290 306 303 272 230 217 217 195 219 239 251 247 240 250 253 147 163 232 228 172 174 275 237 234 233 222 205 214 230 157 143 235 249 224 223 246 236 192 178 162 144 204 211 225 254 269 278 224 198 192 197 189 186 184 169 160 158 154 161 176 187
350 349 350 351 351 347 337 319 315 308 256 327 14 32 32 11 1 325 326 323 320 314 303 304 299 284 282 290 305 291 264 242 227 226 204 212 226 250 246 220 173 337 234 181 161 326 128 175 245 234 230 233 236 217 214 251 252 185 268 281 246 213 248 270 175 163 156 153 244 205 229 267 286 290 230 191 182 198 195 194 192 172 153 153 153 152 168 178
346 344 346 348 350 349 336 317 305 278 260 1 33 46 40 25 12 332 320 310 311 313 305 304 298 284 282 285 285 273 265 258 242 235 221 213 216 222 218 158 135 244 267 139 98 3 56 239 247 239 228 229 258 234 198 244 254 188 199 255 242 214 256 330 10 123 149 202 273 183 201 271 299 254 209 193 198 211 208 208 197 171 150 153 159 156 165 177
344 341 342 344 348 348 338 316 280 265 262 357 41 47 38 24 14 348 321 280 295 306 301 292 281 273 276 278 265 237 240 245 249 244 223 213 213 215 209 164 165 207 5 137 165 158 249 244 244 238 207 193 262 251 201 244 266 208 159 151 220 212 155 278 329 97 128 101 146 160 190 284 310 294 192 200 211 230 226 219 196 174 180 169 171 174 177 186
343 340 338 339 343 347 341 314 262 264 263 253 25 44 29 7 358 344 324 269 287 299 294 283 268 266 264 262 243 221 223 230 241 253 229 214 204 202 219 211 176 180 222 199 176 179 242 253 266 347 142 189 250 275 189 203 274 266 203 179 182 183 164 164 150 110 51 355 103 109 36 313 309 298 257 216 208 242 239 223 193 180 192 179 170 178 184 192
342 338 335 336 337 344 344 318 258 261 257 252 285 312 1 349 341 338 333 312 289 286 289 278 258 257 245 235 223 211 213 225 241 251 243 219 202 188 232 206 158 230 237 196 165 188 250 259 273 325 167 178 207 236 190 161 168 320 246 210 146 143 140 118 125 108 54 323 239 120 61 297 303 286 253 268 198 240 246 223 203 169 179 181 175 174 180 191
340 336 333 332 332 340 347 331 289 273 263 262 261 261 313 333 339 336 345 48 324 279 274 209 209 227 220 217 208 197 206 240 246 245 235 221 210 210 270 209 165 255 257 169 153 198 250 253 222 191 176 141 144 226 210 158 114 10 251 209 109 120 129 130 138 127 115 231 250 144 145 266 307 300 258 224 184 246 284 250 225 158 156 188 191 181 185 193
337 335 331 329 329 335 340 334 315 293 273 262 252 256 288 327 340 330 349 35 324 269 228 189 189 200 207 214 200 181 159 246 236 232 216 213 213 214 240 250 210 264 268 76 52 262 241 35 65 108 109 103 104 105 205 140 113 205 233 126 110 125 138 150 156 153 165 172 344 120 137 94 298 287 280 177 170 267 281 269 257 167 159 196 203 187 192 198
331 332 328 326 326 328 329 326 318 305 274 259 257 257 276 326 330 329 63 44 291 236 227 218 201 201 207 210 200 192 144 170 174 235 212 210 214 206 221 229 205 242 226 101 45 267 242 90 195 141 87 90 204 198 183 133 110 243 215 128 126 146 149 161 165 163 109 98 333 271 144 96 273 279 335 64 72 316 300 284 271 211 170 198 209 194 198 204
324 327 325 322 321 320 320 319 317 307 263 255 264 259 273 316 326 18 90 52 273 244 243 201 193 212 207 193 203 214 219 179 182 220 206 210 219 214 245 250 202 217 240 135 177 255 277 254 202 153 123 206 228 223 175 150 175 248 169 108 69 88 121 130 142 134 58 70 259 247 182 163 274 294 10 42 31 344 316 299 280 257 202 196 205 200 200 207
317 322 322 318 316 313 311 315 315 296 253 255 263 258 279 314 355 68 90 270 258 268 252 179 203 193 161 137 230 237 221 213 219 194 194 204 218 223 254 285 180 90 344 360 203 251 294 276 210 162 189 200 209 224 159 170 201 140 77 57 40 35 60 61 59 91 73 312 269 241 191 166 290 317 17 34 306 326 326 326 320 304 278 221 200 196 201 211
312 315 317 315 311 306 304 307 302 280 261 266 261 245 274 327 65 96 205 245 273 300 336 239 241 128 151 160 237 235 203 235 226 177 200 216 220 230 267 325 12 51 3 349 323 303 346 336 225 232 234 155 112 342 36 10 16 110 77 56 55 356 21 37 2 41 100 259 280 249 145 106 9 280 329 258 229 216 233 304 9 311 287 264 225 203 207 216
311 310 312 309 302 295 294 295 285 267 257 266 250 160 135 34 43 169 232 301 322 263 283 254 248 225 189 184 232 218 190 233 207 163 187 194 184 226 186 190 164 43 343 314 331 334 349 278 271 334 292 138 93 52 350 6 22 75 79 69 75 348 20 25 337 32 172 241 299 19 87 91 190 235 252 255 247 252 262 283 340 339 296 284 262 230 219 221
311 309 308 302 293 288 287 285 269 249 236 218 165 121 100 85 225 219 236 308 242 233 295 307 260 227 147 127 266 219 185 233 217 178 163 121 180 257 283 195 159 104 221 236 334 349 340 307 329 355 298 292 99 118 261 342 17 59 102 105 99 80 65 353 294 10 302 252 289 349 47 90 294 250 238 253 271 288 295 314 333 342 347 347 341 306 229 220
311 311 306 297 290 286 281 264 246 232 212 192 167 96 93 133 236 228 232 255 250 288 336 329 276 225 140 174 240 195 172 244 199 150 116 93 165 274 297 216 171 123 123 135 342 98 88 330 308 245 268 6 77 165 163 144 70 39 137 124 121 143 139 182 225 186 268 261 306 348 40 148 254 241 228 256 278 280 296 336 350 358 9 17 16 17 26 232
313 313 306 299 294 287 274 244 233 221 194 179 126 83 136 208 244 218 221 242 291 334 318 317 279 185 196 257 257 195 183 230 180 129 125 150 176 210 200 203 200 131 115 122 273 98 104 245 270 274 275 82 343 265 141 108 63 333 69 82 100 170 143 140 179 181 182 271 342 354 360 215 225 247 250 267 284 284 315 356 7 11 11 15 16 19 28 20
317 317 313 310 299 274 249 230 225 210 187 166 99 106 201 217 210 188 211 205 79 332 336 339 2 135 272 300 313 299 201 211 166 132 148 206 186 195 185 195 199 159 140 140 190 29 72 297 297 327 349 26 101 76 53 108 140 318 32 50 231 173 118 117 180 352 63 83 325 354 304 297 324 292 264 274 292 293 336 1 4 7 5 5 6 7 9 5
324 328 335 344 323 242 216 215 210 194 182 157 118 211 213 229 208 193 166 46 342 320 35 5 320 146 290 304 313 304 299 286 169 145 225 250 207 216 176 158 197 195 191 157 151 196 123 321 301 347 11 341 64 92 49 37 109 123 109 212 224 63 77 99 103 1 39 80 281 353 304 299 343 307 287 328 311 303 346 351 345 357 1 354 352 354 353 350
330 335 345 358 348 207 197 196 184 179 172 151 201 238 216 234 233 227 3 10 345 15 89 180 250 225 160 197 280 289 276 222 262 168 175 184 228 235 163 135 12 295 219 166 115 146 114 87 297 314 350 314 8 76 38 9 43 102 144 157 106 83 22 39 78 78 67 80 297 338 335 275 205 230 270 247 262 287 326 334 333 346 351 345 341 341 339 337
334 338 350 359 11 175 179 173 169 167 157 143 221 248 229 238 273 296 319 326 286 170 153 212 227 303 232 194 237 281 240 188 218 167 146 145 172 223 188 152 17 335 263 131 119 146 92 102 281 299 312 329 5 44 74 349 12 50 62 34 50 121 151 105 99 155 131 138 262 325 347 292 229 215 198 213 237 250 295 316 329 331 337 340 337 336 333 331
334 339 355 3 116 160 162 161 162 154 139 172 200 237 277 272 281 277 279 294 270 207 233 213 203 272 271 252 265 285 159 172 183 154 148 116 116 230 262 158 133 23 32 68 89 103 51 81 197 298 329 20 14 149 159 177 166 69 56 30 42 66 92 101 59 81 121 132 174 141 323 273 252 204 186 216 230 203 232 282 296 316 332 341 340 340 335 329
341 352 17 29 128 153 152 158 162 140 134 212 216 226 281 281 273 277 275 274 260 239 235 222 216 234 241 259 267 256 89 99 144 135 153 172 138 166 240 168 158 165 64 47 50 90 85 103 133 302 349 30 249 245 192 190 179 145 147 162 144 124 106 94 12 310 107 127 163 155 209 267 260 199 194 211 206 192 229 266 283 316 337 345 348 349 343 336
353 347 98 55 150 163 154 161 223 118 151 233 250 231 274 283 271 287 288 277 247 233 232 228 222 217 217 223 224 204 144 45 67 147 168 189 175 171 184 174 166 149 111 78 303 180 124 104 98 273 258 233 259 278 287 193 158 123 127 151 140 128 115 120 177 239 143 98 146 124 152 267 267 217 210 211 194 215 273 288 305 328 343 350 354 354 349 348
347 323 215 86 206 179 161 304 314 309 219 256 267 268 281 283 270 284 291 280 245 236 230 240 222 208 217 210 192 181 146 117 180 188 171 163 193 237 168 154 143 116 104 116 266 245 87 83 83 321 299 307 303 314 350 51 92 83 40 135 137 140 131 143 169 169 145 158 129 80 242 268 282 286 254 227 207 295 295 336 342 339 346 353 357 356 356 358
335 317 282 71 185 188 186 306 264 273 302 296 307 309 295 280 261 267 269 237 251 252 229 270 238 218 234 187 160 195 155 123 162 183 153 131 173 230 170 158 151 128 131 159 173 166 135 95 99 76 352 352 351 340 345 351 25 71 285 261 174 129 104 109 122 89 100 201 154 134 228 256 277 318 337 4 19 327 287 304 339 338 347 355 358 1 2 2
338 311 280 15 134 186 194 67 122 270 325 338 321 311 303 293 267 265 262 248 254 247 229 269 255 224 222 150 121 247 166 134 156 176 157 136 174 212 185 180 171 135 143 157 154 150 141 129 117 115 135 167 172 212 262 300 326 322 303 281 175 131 117 129 119 82 113 223 148 146 219 264 287 318 327 320 358 309 281 291 325 340 353 355 359 3 2 1
1 335 309 342 37 148 117 59 56 21 349 359 330 294 292 303 284 282 275 257 255 244 231 263 263 243 232 167 150 256 224 138 132 160 165 166 211 236 177 172 151 134 146 152 146 129 95 102 129 136 160 175 182 213 221 175 144 308 314 289 196 159 118 114 108 121 180 175 169 213 202 234 286 279 268 272 260 250 272 302 334 350 356 352 354 357 358 359
19 31 354 343 343 1 24 38 32 15 316 329 315 260 288 301 299 300 288 269 271 259 241 256 238 208 216 191 158 222 265 23 110 167 171 175 230 356 117 130 134 143 149 150 146 118 84 69 149 144 178 197 187 205 209 129 185 236 261 239 198 158 109 111 145 195 158 123 249 251 187 175 255 250 237 251 247 244 274 314 337 349 355 346 345 348 351 355
353 346 12 4 324 319 4 348 344 336 317 318 272 232 313 315 321 328 307 302 301 284 259 269 257 241 224 188 147 167 203 42 26 203 159 147 80 58 83 39 88 154 153 140 136 109 98 141 194 167 218 242 221 232 213 149 204 232 243 209 175 160 157 158 185 194 144 140 226 227 172 186 244 244 225 229 223 238 290 328 331 340 353 345 340 345 350 352
336 316 325 350 314 273 290 301 309 315 318 320 308 357 349 328 329 328 308 315 317 303 287 232 284 308 292 168 122 140 182 127 225 244 180 145 132 112 123 58 315 192 163 101 66 98 103 171 198 163 250 297 272 245 213 165 172 5 348 192 154 157 165 144 140 157 143 166 224 182 176 213 244 232 217 209 195 228 282 314 318 338 356 350 344 346 350 350
355 323 316 339 325 295 296 300 307 328 333 331 342 343 335 333 337 327 309 301 310 316 344 323 279 314 9 90 87 80 238 197 193 234 164 146 148 151 164 182 182 181 119 97 71 58 100 193 197 111 57 318 308 220 125 103 114 91 22 57 121 122 103 86 103 128 123 32 5 83 160 253 263 205 155 140 172 212 256 282 313 346 358 351 346 347 349 348
287 284 296 330 326 296 303 313 319 2 354 357 12 341 333 337 332 323 301 272 295 320 326 309 293 332 52 57 65 34 296 228 218 246 183 163 187 192 188 188 169 150 123 165 160 81 104 165 75 76 74 285 300 30 74 72 76 71 40 92 123 121 122 141 165 164 153 138 78 67 123 262 257 147 120 134 178 202 266 283 306 336 352 353 345 341 343 345
278 258 247 245 285 293 325 328 322 10 338 355 358 338 322 320 327 331 314 297 337 350 349 341 333 59 61 41 28 327 317 303 273 274 250 233 225 205 197 186 170 161 159 159 144 122 132 141 150 111 119 258 284 355 43 62 55 19 257 173 146 122 126 134 136 177 165 143 136 168 222 237 205 136 139 175 186 200 242 262 292 321 341 353 347 340 340 343